When you browse on this site, cookies collect data to enhance your experience and personalize the content and advertising you see.
Visit our Privacy Policy to learn more. By continuing to use the site, you agree to this use of cookies and data.
  • In Latvia
  • List of Countries
  • For 7 days
  • Water Temperature
  • Satellite Maps
  • Weather Map
  • Weather Widgets
  • user-avatar
    Login

    Hourly Weather Linz

    Today, 23 July, Tuesday

    Time Temperature Precipitation Wind Pressure Humidity
    00:00 +21°C° 0 mm 1 mps 739 mmHg 83%
    01:00 +21°C° 0 mm 1 mps 739 mmHg 84%
    02:00 +20°C° 0 mm 1 mps 739 mmHg 86%
    03:00 +20°C° 0 mm 1 mps 739 mmHg 87%
    04:00 +19°C° 0 mm 1 mps 739 mmHg 89%
    05:00 +18°C° 0 mm 0 mps 739 mmHg 86%
    06:00 +19°C° 0 mm 0 mps 739 mmHg 82%
    07:00 +21°C° 0 mm 0 mps 739 mmHg 78%
    08:00 +22°C° 0 mm 0 mps 739 mmHg 73%
    09:00 +24°C° 0 mm 0 mps 739 mmHg 68%
    10:00 +27°C° 0 mm 1 mps 739 mmHg 62%
    11:00 +28°C° 0 mm 1 mps 738 mmHg 59%
    12:00 +29°C° 0 mm 1 mps 738 mmHg 55%
    13:00 +30°C° 0 mm 1 mps 738 mmHg 51%
    14:00 +30°C° 0 mm 1 mps 737 mmHg 51%
    15:00 +30°C° 0 mm 1 mps 737 mmHg 51%
    16:00 +30°C° 0 mm 1 mps 737 mmHg 51%
    17:00 +29°C° 0 mm 1 mps 737 mmHg 58%
    18:00 +26°C° 0 mm 0 mps 737 mmHg 64%
    19:00 +24°C° 0 mm 0 mps 737 mmHg 70%
    20:00 +25°C° 0 mm 1 mps 737 mmHg 72%
    21:00 +23°C° 0 mm 1 mps 737 mmHg 74%
    22:00 +22°C° 0 mm 1 mps 737 mmHg 76%
    23:00 +21°C° 0 mm 1 mps 737 mmHg 77%

    Tomorrow, 24 July, Wednesday

    Time Temperature Precipitation Wind Pressure Humidity
    00:00 +21°C° 0 mm 1 mps 737 mmHg 78%
    01:00 +20°C° 0 mm 1 mps 737 mmHg 79%
    02:00 +20°C° 0 mm 1 mps 737 mmHg 80%
    03:00 +19°C° 0 mm 1 mps 736 mmHg 82%
    04:00 +19°C° 0 mm 1 mps 736 mmHg 83%
    05:00 +20°C° 0 mm 1 mps 736 mmHg 80%
    06:00 +21°C° 0 mm 1 mps 736 mmHg 78%
    07:00 +23°C° 0 mm 1 mps 736 mmHg 75%
    08:00 +24°C° 0 mm 1 mps 736 mmHg 70%
    09:00 +26°C° 0 mm 2 mps 736 mmHg 65%
    10:00 +28°C° 0 mm 2 mps 736 mmHg 60%
    11:00 +29°C° 0 mm 2 mps 736 mmHg 56%
    12:00 +30°C° 0 mm 2 mps 736 mmHg 52%
    13:00 +31°C° 0 mm 2 mps 735 mmHg 49%
    14:00 +31°C° 0 mm 2 mps 735 mmHg 48%
    15:00 +31°C° 0 mm 2 mps 735 mmHg 48%
    16:00 +31°C° 0 mm 2 mps 735 mmHg 48%
    17:00 +30°C° 0 mm 2 mps 735 mmHg 56%
    18:00 +28°C° 0 mm 2 mps 735 mmHg 63%
    19:00 +26°C° 0 mm 2 mps 735 mmHg 71%
    20:00 +25°C° 0 mm 2 mps 735 mmHg 72%
    21:00 +24°C° 0 mm 2 mps 736 mmHg 74%
    22:00 +22°C° 0 mm 1 mps 736 mmHg 76%
    23:00 +22°C° 0 mm 1 mps 736 mmHg 76%

    Day after tomorrow, 25 July, Thursday

    Time Temperature Precipitation Wind Pressure Humidity
    00:00 +21°C° 0 mm 1 mps 736 mmHg 77%
    01:00 +20°C° 0 mm 1 mps 736 mmHg 78%
    02:00 +20°C° 0 mm 1 mps 736 mmHg 79%
    03:00 +19°C° 0 mm 1 mps 736 mmHg 81%
    04:00 +19°C° 0 mm 1 mps 736 mmHg 82%
    05:00 +20°C° 0 mm 1 mps 736 mmHg 80%
    06:00 +21°C° 0 mm 1 mps 736 mmHg 78%
    07:00 +23°C° 0 mm 1 mps 736 mmHg 75%
    08:00 +24°C° 0 mm 2 mps 736 mmHg 70%
    09:00 +26°C° 0 mm 2 mps 736 mmHg 65%
    10:00 +28°C° 0 mm 2 mps 736 mmHg 60%
    11:00 +29°C° 0 mm 2 mps 736 mmHg 56%
    12:00 +31°C° 0 mm 2 mps 735 mmHg 51%
    13:00 +32°C° 0 mm 2 mps 735 mmHg 46%
    14:00 +33°C° 0 mm 3 mps 735 mmHg 47%
    15:00 +33°C° 0 mm 3 mps 735 mmHg 47%
    16:00 +33°C° 0 mm 3 mps 734 mmHg 47%
    17:00 +30°C° 0 mm 2 mps 734 mmHg 54%
    18:00 +28°C° 0 mm 2 mps 734 mmHg 62%
    19:00 +26°C° 0 mm 2 mps 734 mmHg 69%
    20:00 +25°C° 0 mm 2 mps 734 mmHg 71%
    21:00 +24°C° 0 mm 1 mps 734 mmHg 72%
    22:00 +22°C° 0 mm 1 mps 735 mmHg 74%
    23:00 +21°C° 0 mm 1 mps 734 mmHg 76%

    26 July, Friday

    Time Temperature Precipitation Wind Pressure Humidity
    00:00 +21°C° 0 mm 1 mps 734 mmHg 78%
    01:00 +18°C° 0 mm 0 mps 734 mmHg 80%
    02:00 +18°C° 0 mm 0 mps 734 mmHg 82%
    03:00 +17°C° 0 mm 0 mps 734 mmHg 83%
    04:00 +17°C° 0 mm 0 mps 733 mmHg 85%
    05:00 +18°C° 0 mm 0 mps 733 mmHg 82%
    06:00 +19°C° 0 mm 0 mps 733 mmHg 78%
    07:00 +21°C° 0 mm 0 mps 733 mmHg 75%
    08:00 +24°C° 0 mm 1 mps 733 mmHg 70%
    09:00 +26°C° 0 mm 1 mps 733 mmHg 64%
    10:00 +28°C° 0 mm 1 mps 733 mmHg 59%
    11:00 +29°C° 0 mm 2 mps 733 mmHg 56%
    12:00 +30°C° 0 mm 2 mps 733 mmHg 52%
    13:00 +31°C° 0 mm 2 mps 732 mmHg 49%
    14:00 +31°C° 0 mm 2 mps 732 mmHg 48%
    15:00 +31°C° 0 mm 2 mps 732 mmHg 47%
    16:00 +31°C° 0 mm 2 mps 732 mmHg 47%
    17:00 +29°C° 0 mm 2 mps 732 mmHg 55%
    18:00 +27°C° 0 mm 2 mps 732 mmHg 64%
    19:00 +25°C° 0 mm 3 mps 732 mmHg 72%
    20:00 +24°C° 0 mm 2 mps 732 mmHg 73%
    21:00 +21°C° 0 mm 2 mps 732 mmHg 73%
    22:00 +20°C° 0 mm 2 mps 733 mmHg 74%
    23:00 +19°C° 0 mm 2 mps 733 mmHg 77%

    27 July, Saturday

    Time Temperature Precipitation Wind Pressure Humidity
    00:00 +19°C° 0 mm 2 mps 732 mmHg 80%
    01:00 +18°C° 0 mm 2 mps 732 mmHg 83%
    02:00 +17°C° 0 mm 2 mps 732 mmHg 85%
    03:00 +17°C° 0 mm 2 mps 732 mmHg 86%
    04:00 +16°C° 0 mm 2 mps 732 mmHg 87%
    05:00 +17°C° 0 mm 2 mps 732 mmHg 84%
    06:00 +18°C° 0 mm 2 mps 732 mmHg 80%
    07:00 +20°C° 0 mm 2 mps 732 mmHg 77%
    08:00 +21°C° 0 mm 2 mps 732 mmHg 70%
    09:00 +24°C° 0 mm 3 mps 732 mmHg 64%
    10:00 +26°C° 0 mm 3 mps 732 mmHg 58%
    11:00 +26°C° 0 mm 3 mps 732 mmHg 56%
    12:00 +27°C° 0 mm 3 mps 732 mmHg 53%
    13:00 +28°C° 0 mm 3 mps 732 mmHg 51%
    14:00 +28°C° 0 mm 3 mps 731 mmHg 51%
    15:00 +28°C° 0 mm 3 mps 731 mmHg 51%
    16:00 +28°C° 0 mm 3 mps 731 mmHg 51%
    17:00 +27°C° 0 mm 3 mps 731 mmHg 58%
    18:00 +25°C° 0 mm 3 mps 731 mmHg 65%
    19:00 +24°C° 0 mm 2 mps 732 mmHg 72%
    20:00 +21°C° 0 mm 2 mps 732 mmHg 74%
    21:00 +20°C° 0 mm 2 mps 732 mmHg 76%
    22:00 +19°C° 0 mm 2 mps 732 mmHg 78%
    23:00 +18°C° 0 mm 2 mps 732 mmHg 81%

    28 July, Sunday

    Time Temperature Precipitation Wind Pressure Humidity
    00:00 +18°C° 0 mm 2 mps 732 mmHg 84%
    01:00 +18°C° 0 mm 1 mps 732 mmHg 86%
    02:00 +18°C° 0 mm 1 mps 732 mmHg 87%
    03:00 +16°C° 0 mm 1 mps 732 mmHg 88%
    04:00 +16°C° 0 mm 1 mps 732 mmHg 89%
    05:00 +18°C° 0 mm 1 mps 732 mmHg 85%
    06:00 +19°C° 0 mm 1 mps 732 mmHg 81%
    07:00 +21°C° 0 mm 1 mps 732 mmHg 77%
    08:00 +23°C° 0 mm 2 mps 733 mmHg 72%
    09:00 +24°C° 0 mm 2 mps 733 mmHg 66%
    10:00 +26°C° 0 mm 2 mps 733 mmHg 60%
    11:00 +27°C° 0 mm 2 mps 733 mmHg 55%
    12:00 +29°C° 0 mm 2 mps 733 mmHg 51%
    13:00 +30°C° 0 mm 2 mps 733 mmHg 46%
    14:00 +30°C° 0 mm 2 mps 733 mmHg 46%
    15:00 +30°C° 0 mm 2 mps 732 mmHg 46%
    16:00 +30°C° 0 mm 2 mps 732 mmHg 46%
    17:00 +29°C° 0 mm 2 mps 733 mmHg 54%
    18:00 +27°C° 0 mm 2 mps 733 mmHg 62%
    19:00 +26°C° 0 mm 1 mps 733 mmHg 70%
    20:00 +24°C° 0 mm 1 mps 733 mmHg 73%
    21:00 +23°C° 0 mm 1 mps 734 mmHg 76%
    22:00 +21°C° 0 mm 1 mps 734 mmHg 79%
    23:00 +21°C° 0 mm 1 mps 734 mmHg 81%
    Show more